Content
SEND FEEDBACK

Daily
Averages
Monthly
Summary
Russia

IRKUTSK, RUSSIA


Home > Europe > Russia
Elevation: 1683 feet     Latitude: 52 16N     Longitude: 104 21E

WEATHER
 
SELECT A DAY
Number of Records: 198,143;   Date Range: 3/5/97 - 8/28/14
 
SHARE

PRINT THIS DATA

[ ← Previous Day ]
WEATHER ALMANAC - JANUARY 31, 2013
[ Next Day → ]
[ °C ]   °F
Weather ElementAverageHighLow
Temperature-12.8 °F5 °F (4:00 pm)-25.6 °F (6:30 am)
Dewpoint-20.1 °F-3 °F (9:00 pm)-32.8 °F (6:30 am)
Humidity70.3 %100 % (9:00 pm)52 % (4:00 pm)
Barometer30.39 in30.70 in (9:00 am)30.36 in (12:30 am)
Wind Speed4.4 mph6.7 mph (12:30 am)
Weather ElementAverage
Visibility5 mi
Wind DirectionESE (105.5 °)

Weather ElementTotal
Precipitation---
Heating Degree Days75.3 (Base 65)
Averaged from 51 records on January 31, 2013
WEATHER CONDITIONS BREAKOUT
WIND DIRECTION BREAKOUT
WEATHER BY HOUR - JANUARY 31, 2013
[ °C ]   °F
Local TimeTemperatureDewpointHumidityBarometerVisibilityWind DirectionWind SpeedGust SpeedPrecipitationEventsConditions
12:30 AM-18.4 °F-25.6 °F70 %30.36 in3.1 miEast (90°)6.7 mphSmoke
1:00 AM-20.2 °F-25.6 °F76 %30.36 in2.5 miENE (70°)4.5 mphSmoke
1:30 AM-20.2 °F-25.6 °F76 %30.36 in2.5 miEast (90°)4.5 mphSmoke
2:00 AM-22.0 °F-27.4 °F76 %30.36 in2.5 miEast (90°)6.7 mphSmoke
2:30 AM-22.0 °F-27.4 °F76 %30.36 in2.5 miEast (90°)6.7 mphSmoke
3:00 AM-22.0 °F-29.2 °F69 %30.36 in2.5 miEast (90°)4.5 mphSmoke
3:00 AM-16.0 °F-19.0 °F81 %30.66 in1.0 miEast (80°)2.2 mphMist
3:30 AM-22.0 °F-29.2 °F69 %30.36 in2.5 miEast (90°)4.5 mphSmoke
4:00 AM-22.0 °F-29.2 °F69 %30.36 in2.5 miEast (80°)4.5 mphSmoke
4:30 AM-23.8 °F-29.2 °F76 %30.36 inEast (80°)4.5 mphClear
5:00 AM-23.8 °F-29.2 °F76 %30.36 inEast (90°)4.5 mphClear
5:30 AM-23.8 °F-31.0 °F69 %30.36 inEast (90°)4.5 mphClear
6:00 AM-23.8 °F-31.0 °F69 %30.36 inEast (90°)4.5 mphClear
6:30 AM-25.6 °F-32.8 °F69 %30.36 inEast (80°)4.5 mphClear
7:00 AM-25.6 °F-31.0 °F76 %30.36 inEast (90°)4.5 mphClear
7:30 AM-23.8 °F-29.2 °F76 %30.36 inEast (100°)4.5 mphClear
8:00 AM-23.8 °F-31.0 °F69 %30.36 inEast (90°)2.2 mphClear
8:30 AM-25.6 °F-32.8 °F69 %30.36 inEast (90°)4.5 mphClear
9:00 AM-25.6 °F-32.8 °F69 %30.39 inEast (90°)4.5 mphClear
9:00 AM-19.0 °F-22.0 °F77 %30.70 in1.0 miNE (50°)2.2 mphMist
9:30 AM-25.6 °F-32.8 °F69 %30.39 inEast (100°)4.5 mphClear
10:00 AM-23.8 °F-29.2 °F76 %30.39 inESE (110°)4.5 mphClear
10:30 AM-22.0 °F-27.4 °F76 %30.39 inEast (90°)2.2 mphClear
11:00 AM-22.0 °F-29.2 °F69 %30.39 inEast (90°)4.5 mphClear
11:30 AM-18.4 °F-25.6 °F70 %30.39 inEast (90°)2.2 mphClear
12:00 PM-18.4 °F-23.8 °F76 %30.39 inEast (80°)2.2 mphClear
12:30 PM-16.6 °F-22.0 °F76 %30.39 inEast (100°)2.2 mphClear
1:00 PM-13.0 °F-20.2 °F70 %30.39 inVariable2.2 mphClear
1:30 PM-5.8 °F-9.4 °F84 %30.39 inVariable2.2 mphClear
2:00 PM-4.0 °F-9.4 °F78 %30.36 inCalmClear
2:30 PM-0.4 °F-11.2 °F60 %30.36 inVariable2.2 mphClear
3:00 PM1.4 °F-11.2 °F56 %30.36 inSSW (200°)4.5 mphClear
3:00 PM2.0 °F-6.0 °F57 %30.58 in31.0 miSE (140°)6.7 mphFogPatches of Fog
3:30 PM3.2 °F-9.4 °F56 %30.36 inVariable2.2 mphClear
4:00 PM5.0 °F-9.4 °F52 %30.36 inSouth (180°)4.5 mphClear
4:30 PM5.0 °F-9.4 °F52 %30.36 inSouth (170°)4.5 mphClear
5:00 PM5.0 °F-9.4 °F52 %30.36 inSSE (160°)6.7 mphClear
5:30 PM3.2 °F-7.6 °F61 %30.36 inSSW (200°)4.5 mphClear
6:00 PM3.2 °F-9.4 °F56 %30.36 inSSE (160°)6.7 mphClear
6:30 PM1.4 °F-11.2 °F56 %30.36 inSSE (150°)6.7 mphClear
7:00 PM-0.4 °F-11.2 °F60 %30.36 inSouth (170°)6.7 mphClear
7:30 PM-2.2 °F-11.2 °F66 %30.39 inSouth (180°)2.2 mphClear
8:00 PM-4.0 °F-11.2 °F71 %30.39 inSSE (160°)6.7 mphClear
8:30 PM-4.0 °F-13.0 °F65 %30.39 inSSE (150°)6.7 mphClear
9:00 PM-7.6 °F-13.0 °F77 %30.39 inSSE (150°)4.5 mphClear
9:00 PM-3.0 °F-3.0 °F100 %30.63 in6.0 miSE (130°)6.7 mph
9:30 PM-7.6 °F-13.0 °F77 %30.39 inSSE (150°)4.5 mphClear
10:00 PM-7.6 °F-13.0 °F77 %30.39 inSSE (160°)6.7 mphClear
10:30 PM-9.4 °F-14.8 °F77 %30.39 inSE (130°)4.5 mphClear
11:00 PM-9.4 °F-14.8 °F77 %30.39 inSE (140°)4.5 mphClear
11:30 PM-9.4 °F-14.8 °F77 %30.39 inSE (130°)4.5 mphClear
Hourly data recorded from UIII, located miles away from Irkutsk, Russia







STORIES FROM OUR PARTNERS